Lid_Strength_Index
7 9 11 10 9 9 9 10 11 10 10 9 10 9 8 7 7 7 7 6 6 5 4 4 4 4 2 1 1 1 1 0 0 1 1 1 1 1 0 -0 -1 -0 -0 -0
9 11 8 8 10 10 10 11 11 10 10 10 10 10 8 8 7 7 7 6 6 5 5 5 5 4 4 3 1 1 1 0 0 1 1 1 1 0 0 -0 -0 -0 0 1
10 9 9 9 10 11 11 11 11 11 10 10 11 11 10 8 8 7 7 6 6 6 6 5 5 5 4 4 4 3 1 0 0 0 0 0 1 1 1 1 1 0 0 1
9 10 9 10 10 10 12 10 10 11 12 14 11 14 10 9 9 9 8 7 7 7 6 7 7 6 4 4 4 4 4 2 0 0 1 1 2 2 1 1 0 0 -0 0
11 10 10 10 10 9 11 9 10 11 12 12 12 13 11 10 10 9 8 8 7 7 7 6 6 5 5 4 3 4 5 4 1 0 0 1 2 1 1 1 1 0 0 0
10 8 8 9 9 9 9 10 10 10 11 15 12 13 13 10 10 9 8 8 7 7 6 6 6 5 5 4 3 2 5 5 3 1 0 1 1 1 1 1 1 1 1 1
10 10 9 9 11 9 9 11 15 15 15 16 13 14 12 9 10 9 9 8 7 6 6 6 6 5 5 5 4 3 2 3 4 2 1 1 1 1 1 1 1 1 1 2
13 15 11 9 9 11 10 10 13 19 17 15 15 16 12 9 9 9 9 7 6 6 6 6 6 6 5 5 5 4 3 2 1 2 1 0 0 1 1 2 1 1 1 1
13 13 10 9 9 9 11 13 10 14 17 15 13 12 10 9 9 9 9 7 7 7 7 7 6 6 6 6 5 5 4 4 3 1 2 1 1 1 1 1 1 2 2 3
11 14 11 10 9 9 10 9 13 12 18 18 15 14 13 11 10 9 9 8 8 8 7 7 7 7 6 6 6 5 5 5 5 4 4 4 3 3 2 2 2 2 2 2
11 11 13 11 12 12 12 12 11 11 12 17 16 14 11 10 9 9 8 7 7 7 7 7 7 7 7 7 7 7 6 6 6 5 5 5 5 5 5 5 5 5 4 4
11 12 14 13 11 11 10 11 11 14 15 14 14 13 10 10 8 7 8 8 7 7 7 7 7 7 7 8 8 8 8 8 7 7 7 7 7 7 7 7 6 6 6 5
10 12 16 15 13 12 13 12 11 11 12 16 16 14 10 9 8 7 8 8 8 7 8 8 8 8 8 8 8 9 9 9 8 8 8 9 9 9 9 9 8 8 8 8
9 11 13 15 14 12 14 13 12 12 14 14 14 13 12 10 9 9 8 8 8 8 8 8 8 8 8 9 9 9 10 10 9 10 10 10 11 10 10 10 10 10 10 10
10 13 12 12 12 11 11 12 13 13 13 14 13 13 11 10 9 8 7 7 8 8 8 8 9 9 10 10 10 10 10 10 10 10 11 11 11 11 11 11 11 11 11 11
10 14 13 14 12 12 13 11 11 11 12 11 12 12 9 8 7 7 8 8 9 9 9 9 10 11 11 11 11 10 10 11 10 10 11 11 11 11 11 12 12 11 11 11
11 14 15 15 14 14 15 14 12 11 10 11 13 11 9 10 10 9 9 9 9 9 9 10 10 10 10 10 10 10 10 10 10 11 12 12 12 12 12 12 12 12 11 11
13 14 14 16 15 19 13 12 10 11 11 10 11 10 9 9 9 8 7 8 8 9 9 10 10 10 10 10 10 10 10 11 11 12 12 12 12 13 12 12 12 12 12 12
11 13 16 17 17 14 13 14 13 13 13 10 11 9 9 9 9 10 8 6 7 8 9 9 9 9 10 10 10 11 11 11 12 12 12 13 13 14 13 14 13 12 12 12
11 11 14 16 18 19 14 12 10 10 15 10 9 9 9 10 12 9 9 8 8 9 9 10 10 10 10 11 11 11 12 12 13 13 13 13 13 14 14 13 13 12 13 13
15 14 16 16 16 14 12 13 10 15 13 13 10 8 9 10 8 9 9 10 10 10 10 10 10 11 12 12 12 12 12 13 13 13 13 13 13 14 13 13 12 13 13 13
15 15 16 15 17 18 12 12 13 11 11 11 10 9 9 9 10 11 11 11 11 11 11 11 12 13 12 12 12 12 13 13 13 14 14 14 14 14 13 13 12 12 11 11
15 12 14 13 13 12 11 11 10 10 10 11 10 10 9 11 11 11 11 11 11 11 12 12 12 12 13 13 13 13 14 15 16 17 17 15 14 13 12 13 12 12 11 11
13 13 12 12 12 12 12 11 11 10 10 10 10 10 9 11 11 11 11 12 12 12 12 13 12 12 14 14 15 16 15 16 19 17 16 15 14 13 13 12 12 11 11 11
13 13 13 13 13 13 11 10 9 9 10 11 10 10 9 10 11 11 11 11 12 12 13 13 13 14 15 15 16 17 18 19 19 18 16 15 14 14 14 13 12 12 11 11
13 13 13 13 10 10 10 8 8 9 10 10 11 11 10 10 10 10 11 11 12 13 14 14 15 15 16 17 18 19 22 22 22 19 16 16 17 15 15 15 14 11 10 10